Time,TemperatureF,DewpointF,PressureIn,WindDirection,WindDirectionDegrees,WindSpeedMPH,WindSpeedGustMPH,Humidity,HourlyPrecipIn,Conditions,Clouds,dailyrainin,SoftwareType,DateUTC
2013-08-10 00:01:00,58.6,46.6,29.85,WSW,247,5.6,7.6,64,0.00,,,0.00,WUHU21623XXSP,2013-08-10 07:01:00,
2013-08-10 00:06:00,58.4,46.8,29.85,WSW,247,4.7,7.6,65,0.00,,,0.00,WUHU21623XXSP,2013-08-10 07:06:00,
2013-08-10 00:11:00,58.4,46.8,29.85,West,270,0.0,7.6,65,0.00,,,0.00,WUHU21623XXSP,2013-08-10 07:11:00,
2013-08-10 00:16:00,58.6,47.0,29.86,West,270,8.1,8.1,65,0.00,,,0.00,WUHU21623XXSP,2013-08-10 07:16:00,
2013-08-10 00:21:00,58.4,46.8,29.85,West,270,6.0,8.1,65,0.00,,,0.00,WUHU21623XXSP,2013-08-10 07:21:00,
2013-08-10 00:26:00,58.4,46.8,29.85,West,270,4.3,7.8,65,0.00,,,0.00,WUHU21623XXSP,2013-08-10 07:26:00,
2013-08-10 00:31:00,58.1,46.5,29.85,West,270,7.8,11.9,65,0.00,,,0.00,WUHU21623XXSP,2013-08-10 07:31:00,
2013-08-10 00:36:00,57.9,46.7,29.86,WSW,247,5.4,12.5,66,0.00,,,0.00,WUHU21623XXSP,2013-08-10 07:36:00,
2013-08-10 00:41:00,57.9,46.7,29.86,WNW,292,11.6,12.5,66,0.00,,,0.00,WUHU21623XXSP,2013-08-10 07:41:00,
2013-08-10 00:46:00,57.9,47.1,29.86,WNW,292,7.8,11.9,67,0.00,,,0.00,WUHU21623XXSP,2013-08-10 07:46:00,
2013-08-10 00:51:00,57.9,47.1,29.86,West,270,11.6,12.8,67,0.00,,,0.00,WUHU21623XXSP,2013-08-10 07:51:00,
2013-08-10 00:56:00,58.1,47.7,29.86,WNW,292,7.8,15.0,68,0.00,,,0.00,WUHU21623XXSP,2013-08-10 07:56:00,
2013-08-10 01:01:00,58.4,48.4,29.86,WSW,247,10.1,15.0,69,0.00,,,0.00,WUHU21623XXSP,2013-08-10 08:01:00,
2013-08-10 01:06:00,58.4,48.4,29.86,WNW,292,9.4,13.0,69,0.00,,,0.00,WUHU21623XXSP,2013-08-10 08:06:00,
2013-08-10 01:11:00,58.4,48.4,29.86,West,270,8.7,13.4,69,0.00,,,0.00,WUHU21623XXSP,2013-08-10 08:11:00,
2013-08-10 01:16:00,58.4,48.4,29.86,WNW,292,5.8,13.4,69,0.00,,,0.00,WUHU21623XXSP,2013-08-10 08:16:00,
2013-08-10 01:21:00,58.6,48.6,29.86,West,270,6.3,12.3,69,0.00,,,0.00,WUHU21623XXSP,2013-08-10 08:21:00,
2013-08-10 01:26:00,58.6,48.6,29.86,West,270,6.0,12.3,69,0.00,,,0.00,WUHU21623XXSP,2013-08-10 08:26:00,
2013-08-10 01:31:00,59.0,49.0,29.86,West,270,6.5,10.5,69,0.00,,,0.00,WUHU21623XXSP,2013-08-10 08:31:00,
2013-08-10 01:36:00,59.0,49.0,29.86,WSW,247,9.4,11.0,69,0.00,,,0.00,WUHU21623XXSP,2013-08-10 08:36:00,
2013-08-10 01:41:00,59.3,49.3,29.86,West,270,8.3,12.3,69,0.00,,,0.00,WUHU21623XXSP,2013-08-10 08:41:00,
2013-08-10 01:46:00,59.5,49.5,29.86,WSW,247,7.8,12.3,69,0.00,,,0.00,WUHU21623XXSP,2013-08-10 08:46:00,
2013-08-10 01:51:00,59.5,49.1,29.86,WSW,247,8.5,12.1,68,0.00,,,0.00,WUHU21623XXSP,2013-08-10 08:51:00,
2013-08-10 01:56:00,59.5,49.1,29.86,West,270,11.4,13.2,68,0.00,,,0.00,WUHU21623XXSP,2013-08-10 08:56:00,
2013-08-10 02:01:00,59.3,49.3,29.86,WNW,292,11.0,13.2,69,0.00,,,0.00,WUHU21623XXSP,2013-08-10 09:01:00,
2013-08-10 02:06:00,59.2,49.2,29.86,WSW,247,11.6,12.3,69,0.00,,,0.00,WUHU21623XXSP,2013-08-10 09:06:00,
2013-08-10 02:11:00,59.0,49.0,29.86,West,270,13.4,13.4,69,0.00,,,0.00,WUHU21623XXSP,2013-08-10 09:11:00,
2013-08-10 02:16:00,59.0,49.0,29.86,WNW,292,12.8,13.4,69,0.00,,,0.00,WUHU21623XXSP,2013-08-10 09:16:00,
2013-08-10 02:21:00,58.8,49.2,29.86,West,270,12.3,13.4,70,0.00,,,0.00,WUHU21623XXSP,2013-08-10 09:21:00,
2013-08-10 02:26:00,58.8,49.2,29.86,West,270,9.2,13.0,70,0.00,,,0.00,WUHU21623XXSP,2013-08-10 09:26:00,
2013-08-10 02:31:00,59.0,49.4,29.86,WNW,292,9.2,13.0,70,0.00,,,0.00,WUHU21623XXSP,2013-08-10 09:31:00,
2013-08-10 02:36:00,59.0,49.4,29.86,WNW,292,8.7,13.0,70,0.00,,,0.00,WUHU21623XXSP,2013-08-10 09:36:00,
2013-08-10 02:41:00,59.0,49.4,29.86,West,270,6.9,13.0,70,0.00,,,0.00,WUHU21623XXSP,2013-08-10 09:41:00,
2013-08-10 02:46:00,58.6,49.0,29.86,West,270,7.6,14.8,70,0.00,,,0.00,WUHU21623XXSP,2013-08-10 09:46:00,
2013-08-10 02:51:00,58.6,49.0,29.86,West,270,8.5,14.8,70,0.00,,,0.00,WUHU21623XXSP,2013-08-10 09:51:00,
2013-08-10 02:56:00,58.4,48.8,29.86,West,270,13.2,13.6,70,0.00,,,0.00,WUHU21623XXSP,2013-08-10 09:56:00,
2013-08-10 03:01:00,58.3,48.7,29.86,West,270,10.3,13.6,70,0.00,,,0.00,WUHU21623XXSP,2013-08-10 10:01:00,
2013-08-10 03:06:00,58.1,48.5,29.86,West,270,11.6,16.6,70,0.00,,,0.00,WUHU21623XXSP,2013-08-10 10:06:00,
2013-08-10 03:11:00,58.1,48.9,29.86,West,270,6.5,16.6,71,0.00,,,0.00,WUHU21623XXSP,2013-08-10 10:11:00,
2013-08-10 03:16:00,58.1,48.9,29.86,WNW,292,11.6,15.7,71,0.00,,,0.00,WUHU21623XXSP,2013-08-10 10:16:00,
2013-08-10 03:21:00,58.4,49.2,29.86,WSW,247,12.8,14.8,71,0.00,,,0.00,WUHU21623XXSP,2013-08-10 10:21:00,
2013-08-10 03:26:00,58.3,48.7,29.86,West,270,9.2,12.8,70,0.00,,,0.00,WUHU21623XXSP,2013-08-10 10:26:00,
2013-08-10 03:31:00,58.1,48.5,29.86,WNW,292,8.3,13.4,70,0.00,,,0.00,WUHU21623XXSP,2013-08-10 10:31:00,
2013-08-10 03:36:00,58.1,48.5,29.86,West,270,10.3,13.6,70,0.00,,,0.00,WUHU21623XXSP,2013-08-10 10:36:00,
2013-08-10 03:41:00,58.4,48.8,29.86,West,270,8.1,13.6,70,0.00,,,0.00,WUHU21623XXSP,2013-08-10 10:41:00,
2013-08-10 03:46:00,58.4,48.8,29.85,West,270,8.3,13.6,70,0.00,,,0.00,WUHU21623XXSP,2013-08-10 10:46:00,
2013-08-10 03:51:00,58.4,48.8,29.86,West,270,4.7,13.6,70,0.00,,,0.00,WUHU21623XXSP,2013-08-10 10:51:00,
2013-08-10 03:56:00,58.4,48.8,29.85,WNW,292,13.4,13.4,70,0.00,,,0.00,WUHU21623XXSP,2013-08-10 10:56:00,
2013-08-10 04:01:00,58.6,49.0,29.86,West,270,12.5,13.4,70,0.00,,,0.00,WUHU21623XXSP,2013-08-10 11:01:00,
2013-08-10 04:06:00,58.8,49.2,29.86,West,270,13.4,13.4,70,0.00,,,0.00,WUHU21623XXSP,2013-08-10 11:06:00,
2013-08-10 04:11:00,58.8,49.2,29.86,West,270,8.5,15.4,70,0.00,,,0.00,WUHU21623XXSP,2013-08-10 11:11:00,
2013-08-10 04:16:00,58.6,49.0,29.85,West,270,7.6,15.4,70,0.00,,,0.00,WUHU21623XXSP,2013-08-10 11:16:00,
2013-08-10 04:21:00,58.4,48.8,29.86,West,270,8.9,13.6,70,0.00,,,0.00,WUHU21623XXSP,2013-08-10 11:21:00,
2013-08-10 04:26:00,58.1,48.5,29.85,West,270,6.9,13.2,70,0.00,,,0.00,WUHU21623XXSP,2013-08-10 11:26:00,
2013-08-10 04:31:00,57.9,48.7,29.86,West,270,10.3,15.7,71,0.00,,,0.00,WUHU21623XXSP,2013-08-10 11:31:00,
2013-08-10 04:36:00,57.7,48.5,29.85,WSW,247,11.0,16.3,71,0.00,,,0.00,WUHU21623XXSP,2013-08-10 11:36:00,
2013-08-10 04:41:00,57.7,48.5,29.85,West,270,8.9,16.3,71,0.00,,,0.00,WUHU21623XXSP,2013-08-10 11:41:00,
2013-08-10 04:46:00,57.5,48.3,29.85,West,270,11.0,13.6,71,0.00,,,0.00,WUHU21623XXSP,2013-08-10 11:46:00,
2013-08-10 04:51:00,57.5,48.7,29.85,West,270,6.7,13.6,72,0.00,,,0.00,WUHU21623XXSP,2013-08-10 11:51:00,
2013-08-10 04:56:00,57.9,49.0,29.85,West,270,6.9,13.0,72,0.00,,,0.00,WUHU21623XXSP,2013-08-10 11:56:00,
2013-08-10 05:01:00,57.9,48.7,29.85,WSW,247,7.8,13.0,71,0.00,,,0.00,WUHU21623XXSP,2013-08-10 12:01:00,
2013-08-10 05:06:00,57.7,48.5,29.85,WSW,247,11.2,13.2,71,0.00,,,0.00,WUHU21623XXSP,2013-08-10 12:06:00,
2013-08-10 05:11:00,57.5,48.7,29.86,WSW,247,8.5,13.2,72,0.00,,,0.00,WUHU21623XXSP,2013-08-10 12:11:00,
2013-08-10 05:16:00,57.4,48.6,29.85,WSW,247,10.3,11.0,72,0.00,,,0.00,WUHU21623XXSP,2013-08-10 12:16:00,
2013-08-10 05:21:00,57.4,48.6,29.85,West,270,8.1,11.0,72,0.00,,,0.00,WUHU21623XXSP,2013-08-10 12:21:00,
2013-08-10 05:26:00,57.2,48.4,29.85,West,270,11.4,12.8,72,0.00,,,0.00,WUHU21623XXSP,2013-08-10 12:26:00,
2013-08-10 05:31:00,57.2,48.4,29.86,WSW,247,11.0,13.6,72,0.00,,,0.00,WUHU21623XXSP,2013-08-10 12:31:00,
2013-08-10 05:36:00,57.2,48.4,29.86,WSW,247,7.8,13.6,72,0.00,,,0.00,WUHU21623XXSP,2013-08-10 12:36:00,
2013-08-10 05:41:00,57.4,48.6,29.86,SW,225,7.8,10.1,72,0.00,,,0.00,WUHU21623XXSP,2013-08-10 12:41:00,
2013-08-10 05:46:00,57.5,49.0,29.86,WSW,247,9.6,11.6,73,0.00,,,0.00,WUHU21623XXSP,2013-08-10 12:46:00,
2013-08-10 05:51:00,57.5,48.7,29.86,WSW,247,4.5,11.6,72,0.00,,,0.00,WUHU21623XXSP,2013-08-10 12:51:00,
2013-08-10 05:56:00,57.5,49.0,29.86,WSW,247,5.8,10.1,73,0.00,,,0.00,WUHU21623XXSP,2013-08-10 12:56:00,
2013-08-10 06:01:00,57.7,49.2,29.86,WSW,247,9.8,11.4,73,0.00,,,0.00,WUHU21623XXSP,2013-08-10 13:01:00,
2013-08-10 06:06:00,57.9,49.4,29.86,West,270,6.7,11.6,73,0.00,,,0.00,WUHU21623XXSP,2013-08-10 13:06:00,
2013-08-10 06:11:00,58.1,49.2,29.87,West,270,6.9,11.6,72,0.00,,,0.00,WUHU21623XXSP,2013-08-10 13:11:00,
2013-08-10 06:16:00,58.3,49.4,29.87,West,270,6.7,10.7,72,0.00,,,0.00,WUHU21623XXSP,2013-08-10 13:16:00,
2013-08-10 06:21:00,58.3,49.4,29.87,West,270,8.9,10.7,72,0.00,,,0.00,WUHU21623XXSP,2013-08-10 13:21:00,
2013-08-10 06:26:00,58.3,49.4,29.87,West,270,9.4,11.0,72,0.00,,,0.00,WUHU21623XXSP,2013-08-10 13:26:00,
2013-08-10 06:31:00,58.4,49.5,29.87,West,270,8.5,12.5,72,0.00,,,0.00,WUHU21623XXSP,2013-08-10 13:31:00,
2013-08-10 06:36:00,58.4,49.5,29.87,WSW,247,8.5,12.5,72,0.00,,,0.00,WUHU21623XXSP,2013-08-10 13:36:00,
2013-08-10 06:41:00,58.3,49.4,29.87,West,270,9.4,11.9,72,0.00,,,0.00,WUHU21623XXSP,2013-08-10 13:41:00,
2013-08-10 06:46:00,58.1,49.2,29.87,West,270,8.5,13.0,72,0.00,,,0.00,WUHU21623XXSP,2013-08-10 13:46:00,
2013-08-10 06:51:00,57.9,49.4,29.87,WSW,247,6.0,13.0,73,0.00,,,0.00,WUHU21623XXSP,2013-08-10 13:51:00,
2013-08-10 06:56:00,57.9,49.4,29.87,WSW,247,6.9,11.4,73,0.00,,,0.00,WUHU21623XXSP,2013-08-10 13:56:00,
2013-08-10 07:01:00,57.7,49.2,29.87,SW,225,8.5,10.1,73,0.00,,,0.00,WUHU21623XXSP,2013-08-10 14:01:00,
2013-08-10 07:06:00,57.5,49.0,29.87,West,270,6.7,9.6,73,0.00,,,0.00,WUHU21623XXSP,2013-08-10 14:06:00,
2013-08-10 07:11:00,57.5,49.0,29.87,West,270,11.0,11.0,73,0.00,,,0.00,WUHU21623XXSP,2013-08-10 14:11:00,
2013-08-10 07:16:00,57.7,49.2,29.87,WSW,247,9.2,13.4,73,0.00,,,0.00,WUHU21623XXSP,2013-08-10 14:16:00,
2013-08-10 07:21:00,58.1,49.6,29.88,West,270,6.0,13.4,73,0.00,,,0.00,WUHU21623XXSP,2013-08-10 14:21:00,
2013-08-10 07:26:00,58.3,49.8,29.88,WSW,247,6.5,12.3,73,0.00,,,0.00,WUHU21623XXSP,2013-08-10 14:26:00,
2013-08-10 07:31:00,58.1,49.6,29.88,West,270,6.9,12.3,73,0.00,,,0.00,WUHU21623XXSP,2013-08-10 14:31:00,
2013-08-10 07:36:00,58.1,49.6,29.88,West,270,6.0,12.1,73,0.00,,,0.00,WUHU21623XXSP,2013-08-10 14:36:00,
2013-08-10 07:41:00,58.1,49.6,29.88,SW,225,8.5,11.6,73,0.00,,,0.00,WUHU21623XXSP,2013-08-10 14:41:00,
2013-08-10 07:46:00,57.9,49.8,29.88,WSW,247,8.1,12.3,74,0.00,,,0.00,WUHU21623XXSP,2013-08-10 14:46:00,
2013-08-10 07:51:00,57.9,49.8,29.88,West,270,7.6,12.8,74,0.00,,,0.00,WUHU21623XXSP,2013-08-10 14:51:00,
2013-08-10 07:56:00,58.1,50.0,29.88,WSW,247,9.6,12.8,74,0.00,,,0.00,WUHU21623XXSP,2013-08-10 14:56:00,
2013-08-10 08:01:00,58.1,50.0,29.89,SW,225,7.6,10.5,74,0.00,,,0.00,WUHU21623XXSP,2013-08-10 15:01:00,
2013-08-10 08:06:00,58.4,50.3,29.89,WSW,247,6.5,11.9,74,0.00,,,0.00,WUHU21623XXSP,2013-08-10 15:06:00,
2013-08-10 08:11:00,58.8,50.3,29.89,WNW,292,9.4,13.0,73,0.00,,,0.00,WUHU21623XXSP,2013-08-10 15:11:00,
2013-08-10 08:16:00,59.0,50.5,29.89,WNW,292,11.4,13.0,73,0.00,,,0.00,WUHU21623XXSP,2013-08-10 15:16:00,
2013-08-10 08:21:00,59.0,50.5,29.89,West,270,8.7,12.8,73,0.00,,,0.00,WUHU21623XXSP,2013-08-10 15:21:00,
2013-08-10 08:26:00,58.6,50.4,29.89,West,270,6.9,12.8,74,0.00,,,0.00,WUHU21623XXSP,2013-08-10 15:26:00,
2013-08-10 08:31:00,58.1,50.7,29.89,WSW,247,8.9,11.2,76,0.00,,,0.00,WUHU21623XXSP,2013-08-10 15:31:00,
2013-08-10 08:36:00,57.9,50.5,29.89,WNW,292,8.5,11.2,76,0.00,,,0.00,WUHU21623XXSP,2013-08-10 15:36:00,
2013-08-10 08:41:00,57.9,50.5,29.89,WNW,292,4.5,11.2,76,0.00,,,0.00,WUHU21623XXSP,2013-08-10 15:41:00,
2013-08-10 08:46:00,58.1,50.7,29.89,WNW,292,10.1,12.3,76,0.00,,,0.00,WUHU21623XXSP,2013-08-10 15:46:00,
2013-08-10 08:51:00,58.4,51.0,29.89,West,270,6.3,12.3,76,0.00,,,0.00,WUHU21623XXSP,2013-08-10 15:51:00,
2013-08-10 08:56:00,58.6,51.1,29.89,West,270,7.8,12.3,76,0.00,,,0.00,WUHU21623XXSP,2013-08-10 15:56:00,
2013-08-10 09:01:00,59.0,51.2,29.89,WNW,292,8.7,12.8,75,0.00,,,0.00,WUHU21623XXSP,2013-08-10 16:01:00,
2013-08-10 09:06:00,59.0,51.2,29.89,SW,225,7.4,12.8,75,0.00,,,0.00,WUHU21623XXSP,2013-08-10 16:06:00,
2013-08-10 09:11:00,59.2,51.0,29.89,WSW,247,11.6,12.8,74,0.00,,,0.00,WUHU21623XXSP,2013-08-10 16:11:00,
2013-08-10 09:16:00,58.8,51.0,29.89,WNW,292,7.2,12.8,75,0.00,,,0.00,WUHU21623XXSP,2013-08-10 16:16:00,
2013-08-10 09:21:00,59.0,51.2,29.89,West,270,7.8,11.6,75,0.00,,,0.00,WUHU21623XXSP,2013-08-10 16:21:00,
2013-08-10 09:26:00,59.3,51.5,29.90,WNW,292,4.7,11.9,75,0.00,,,0.00,WUHU21623XXSP,2013-08-10 16:26:00,
2013-08-10 09:31:00,59.5,51.3,29.90,West,270,6.5,11.9,74,0.00,,,0.00,WUHU21623XXSP,2013-08-10 16:31:00,
2013-08-10 09:36:00,59.5,51.3,29.90,WSW,247,8.5,10.3,74,0.00,,,0.00,WUHU21623XXSP,2013-08-10 16:36:00,
2013-08-10 09:41:00,59.9,51.3,29.90,West,270,3.6,12.5,73,0.00,,,0.00,WUHU21623XXSP,2013-08-10 16:41:00,
2013-08-10 09:46:00,60.4,51.8,29.90,WSW,247,8.5,12.8,73,0.00,,,0.00,WUHU21623XXSP,2013-08-10 16:46:00,
2013-08-10 09:51:00,60.6,52.0,29.90,West,270,8.1,12.8,73,0.00,,,0.00,WUHU21623XXSP,2013-08-10 16:51:00,
2013-08-10 09:56:00,61.1,52.1,29.90,WNW,292,10.5,12.1,72,0.00,,,0.00,WUHU21623XXSP,2013-08-10 16:56:00,
2013-08-10 12:05:00,68.5,54.2,29.90,WSW,247,6.7,6.7,60,0.00,,,0.00,WUHU21623XXSP,2013-08-10 19:05:00,
2013-08-10 12:11:00,69.2,54.4,29.91,SW,225,6.5,13.2,59,0.00,,,0.00,WUHU21623XXSP,2013-08-10 19:11:00,
2013-08-10 12:15:00,69.4,54.6,29.90,SW,225,10.5,13.2,59,0.00,,,0.00,WUHU21623XXSP,2013-08-10 19:15:00,
2013-08-10 12:20:00,70.3,54.5,29.90,WSW,247,8.3,17.7,57,0.00,,,0.00,WUHU21623XXSP,2013-08-10 19:20:00,
2013-08-10 12:26:00,70.3,55.0,29.90,WSW,247,9.6,17.7,58,0.00,,,0.00,WUHU21623XXSP,2013-08-10 19:26:00,
2013-08-10 12:31:00,70.7,54.9,29.90,West,270,7.2,11.4,57,0.00,,,0.00,WUHU21623XXSP,2013-08-10 19:31:00,
2013-08-10 12:36:00,71.2,54.8,29.90,West,270,7.8,13.4,56,0.00,,,0.00,WUHU21623XXSP,2013-08-10 19:36:00,
2013-08-10 12:41:00,71.9,55.5,29.90,WSW,247,11.0,13.6,56,0.00,,,0.00,WUHU21623XXSP,2013-08-10 19:41:00,
2013-08-10 12:46:00,72.5,55.6,29.90,West,270,6.7,13.6,55,0.00,,,0.00,WUHU21623XXSP,2013-08-10 19:46:00,
2013-08-10 12:51:00,72.8,55.3,29.89,West,270,7.4,13.4,54,0.00,,,0.00,WUHU21623XXSP,2013-08-10 19:51:00,
2013-08-10 12:56:00,73.6,55.5,29.89,WNW,292,11.2,13.4,53,0.00,,,0.00,WUHU21623XXSP,2013-08-10 19:56:00,
2013-08-10 13:01:00,73.9,55.8,29.89,West,270,9.2,13.2,53,0.00,,,0.00,WUHU21623XXSP,2013-08-10 20:01:00,
2013-08-10 13:06:00,74.6,55.9,29.89,West,270,9.4,13.6,52,0.00,,,0.00,WUHU21623XXSP,2013-08-10 20:06:00,
2013-08-10 13:11:00,74.8,56.1,29.89,WSW,247,10.3,15.4,52,0.00,,,0.00,WUHU21623XXSP,2013-08-10 20:11:00,
2013-08-10 13:16:00,74.5,55.8,29.89,WNW,292,11.4,16.8,52,0.00,,,0.00,WUHU21623XXSP,2013-08-10 20:16:00,
2013-08-10 13:21:00,75.2,56.5,29.89,West,270,10.1,16.8,52,0.00,,,0.00,WUHU21623XXSP,2013-08-10 20:21:00,
2013-08-10 13:26:00,75.4,56.1,29.89,WSW,247,11.6,16.1,51,0.00,,,0.00,WUHU21623XXSP,2013-08-10 20:26:00,
2013-08-10 13:31:00,75.9,56.6,29.89,West,270,11.4,16.1,51,0.00,,,0.00,WUHU21623XXSP,2013-08-10 20:31:00,
2013-08-10 13:36:00,76.6,56.7,29.89,WNW,292,11.2,13.2,50,0.00,,,0.00,WUHU21623XXSP,2013-08-10 20:36:00,
2013-08-10 13:41:00,77.2,57.2,29.89,West,270,13.6,18.1,50,0.00,,,0.00,WUHU21623XXSP,2013-08-10 20:41:00,
2013-08-10 13:46:00,77.0,56.5,29.89,WNW,292,13.0,18.1,49,0.00,,,0.00,WUHU21623XXSP,2013-08-10 20:46:00,
2013-08-10 13:51:00,77.3,56.7,29.88,West,270,10.1,18.1,49,0.00,,,0.00,WUHU21623XXSP,2013-08-10 20:51:00,
2013-08-10 13:56:00,77.9,56.7,29.89,West,270,8.5,19.5,48,0.00,,,0.00,WUHU21623XXSP,2013-08-10 20:56:00,
2013-08-10 14:01:00,77.7,55.9,29.88,WSW,247,12.1,19.5,47,0.00,,,0.00,WUHU21623XXSP,2013-08-10 21:01:00,
2013-08-10 14:06:00,77.7,55.3,29.88,WSW,247,9.4,18.6,46,0.00,,,0.00,WUHU21623XXSP,2013-08-10 21:06:00,
2013-08-10 14:11:00,78.4,55.9,29.88,West,270,13.2,19.2,46,0.00,,,0.00,WUHU21623XXSP,2013-08-10 21:11:00,
2013-08-10 14:16:00,78.8,56.3,29.88,West,267,11.7,19.2,46,0.00,,,0.00,WUHU21623XXSP,2013-08-10 21:16:00,
2013-08-10 14:21:00,78.4,55.3,29.89,WSW,247,17.0,17.0,45,0.00,,,0.00,WUHU21623XXSP,2013-08-10 21:21:00,
2013-08-10 14:26:00,78.4,55.3,29.88,WSW,247,15.4,17.0,45,0.00,,,0.00,WUHU21623XXSP,2013-08-10 21:26:00,
2013-08-10 14:31:00,78.4,54.7,29.88,West,270,13.4,20.1,44,0.00,,,0.00,WUHU21623XXSP,2013-08-10 21:31:00,
2013-08-10 14:36:00,79.0,53.9,29.88,West,270,10.5,20.1,42,0.00,,,0.00,WUHU21623XXSP,2013-08-10 21:36:00,
2013-08-10 14:41:00,79.0,53.9,29.88,West,270,9.2,17.7,42,0.00,,,0.00,WUHU21623XXSP,2013-08-10 21:41:00,
2013-08-10 14:46:00,79.3,53.5,29.88,West,270,9.2,18.8,41,0.00,,,0.00,WUHU21623XXSP,2013-08-10 21:46:00,
2013-08-10 14:51:00,79.3,53.5,29.88,West,267,13.0,19.0,41,0.00,,,0.00,WUHU21623XXSP,2013-08-10 21:51:00,
2013-08-10 14:56:00,79.7,53.9,29.88,West,263,12.4,19.0,41,0.00,,,0.00,WUHU21623XXSP,2013-08-10 21:56:00,
2013-08-10 15:01:00,79.7,53.2,29.88,WSW,247,13.4,19.2,40,0.00,,,0.00,WUHU21623XXSP,2013-08-10 22:01:00,
2013-08-10 15:06:00,79.7,53.2,29.88,WNW,292,17.2,19.2,40,0.00,,,0.00,WUHU21623XXSP,2013-08-10 22:06:00,
2013-08-10 15:11:00,80.0,53.4,29.88,WNW,292,17.4,21.5,40,0.00,,,0.00,WUHU21623XXSP,2013-08-10 22:11:00,
2013-08-10 15:16:00,80.0,52.7,29.88,West,270,15.9,21.5,39,0.00,,,0.00,WUHU21623XXSP,2013-08-10 22:16:00,
2013-08-10 15:21:00,80.0,53.4,29.88,West,270,11.0,20.6,40,0.00,,,0.00,WUHU21623XXSP,2013-08-10 22:21:00,
2013-08-10 15:26:00,79.7,52.5,29.88,WSW,247,17.2,20.4,39,0.00,,,0.00,WUHU21623XXSP,2013-08-10 22:26:00,
2013-08-10 15:31:00,79.7,52.5,29.88,West,270,11.9,19.5,39,0.00,,,0.00,WUHU21623XXSP,2013-08-10 22:31:00,
2013-08-10 15:36:00,80.0,53.4,29.87,WNW,292,12.1,24.4,40,0.00,,,0.00,WUHU21623XXSP,2013-08-10 22:36:00,
2013-08-10 15:41:00,80.0,52.7,29.88,West,270,12.1,24.4,39,0.00,,,0.00,WUHU21623XXSP,2013-08-10 22:41:00,
2013-08-10 15:46:00,80.0,53.4,29.87,West,270,18.3,21.5,40,0.00,,,0.00,WUHU21623XXSP,2013-08-10 22:46:00,
2013-08-10 15:51:00,80.2,52.9,29.87,West,270,12.3,21.5,39,0.00,,,0.00,WUHU21623XXSP,2013-08-10 22:51:00,
2013-08-10 15:56:00,80.0,52.7,29.87,West,270,19.7,23.0,39,0.00,,,0.00,WUHU21623XXSP,2013-08-10 22:56:00,
2013-08-10 16:01:00,79.7,53.9,29.87,WNW,292,19.7,23.0,41,0.00,,,0.00,WUHU21623XXSP,2013-08-10 23:01:00,
2013-08-10 16:06:00,80.0,54.1,29.87,West,270,15.7,19.7,41,0.00,,,0.00,WUHU21623XXSP,2013-08-10 23:06:00,
2013-08-10 16:11:00,79.5,53.7,29.87,WNW,292,16.1,21.7,41,0.00,,,0.00,WUHU21623XXSP,2013-08-10 23:11:00,
2013-08-10 16:16:00,80.0,54.1,29.87,WNW,292,19.2,21.7,41,0.00,,,0.00,WUHU21623XXSP,2013-08-10 23:16:00,
2013-08-10 16:21:00,80.0,54.1,29.87,West,270,16.3,22.4,41,0.00,,,0.00,WUHU21623XXSP,2013-08-10 23:21:00,
2013-08-10 16:26:00,79.7,54.5,29.87,West,270,19.0,22.4,42,0.00,,,0.00,WUHU21623XXSP,2013-08-10 23:26:00,
2013-08-10 16:31:00,79.5,54.4,29.87,West,270,12.5,19.7,42,0.00,,,0.00,WUHU21623XXSP,2013-08-10 23:31:00,
2013-08-10 16:36:00,80.0,54.8,29.87,West,270,18.8,19.7,42,0.00,,,0.00,WUHU21623XXSP,2013-08-10 23:36:00,
2013-08-10 16:41:00,80.2,55.7,29.87,West,270,13.4,21.3,43,0.00,,,0.00,WUHU21623XXSP,2013-08-10 23:41:00,
2013-08-10 16:46:00,80.6,56.0,29.87,West,266,15.4,21.3,43,0.00,,,0.00,WUHU21623XXSP,2013-08-10 23:46:00,
2013-08-10 16:51:00,80.6,56.0,29.87,WSW,247,17.4,21.5,43,0.00,,,0.00,WUHU21623XXSP,2013-08-10 23:51:00,
2013-08-10 16:56:00,80.6,56.0,29.87,West,270,19.0,21.5,43,0.00,,,0.00,WUHU21623XXSP,2013-08-10 23:56:00,
2013-08-10 17:01:00,80.6,56.0,29.87,WSW,247,15.2,21.3,43,0.00,,,0.00,WUHU21623XXSP,2013-08-11 00:01:00,
2013-08-10 17:06:00,80.6,56.0,29.87,West,270,13.6,20.8,43,0.00,,,0.00,WUHU21623XXSP,2013-08-11 00:06:00,
2013-08-10 17:11:00,80.8,56.2,29.87,WSW,247,19.2,20.6,43,0.00,,,0.00,WUHU21623XXSP,2013-08-11 00:11:00,
2013-08-10 17:16:00,80.4,55.2,29.87,WSW,247,15.0,20.6,42,0.00,,,0.00,WUHU21623XXSP,2013-08-11 00:16:00,
2013-08-10 17:21:00,80.2,55.7,29.87,WSW,247,15.4,20.4,43,0.00,,,0.00,WUHU21623XXSP,2013-08-11 00:21:00,
2013-08-10 17:26:00,79.9,55.4,29.87,West,270,15.4,22.4,43,0.00,,,0.00,WUHU21623XXSP,2013-08-11 00:26:00,
2013-08-10 17:31:00,79.7,55.9,29.87,WSW,247,12.3,22.4,44,0.00,,,0.00,WUHU21623XXSP,2013-08-11 00:31:00,
2013-08-10 17:36:00,79.7,55.9,29.87,West,270,15.4,20.6,44,0.00,,,0.00,WUHU21623XXSP,2013-08-11 00:36:00,
2013-08-10 17:41:00,79.5,55.7,29.87,West,270,11.4,19.5,44,0.00,,,0.00,WUHU21623XXSP,2013-08-11 00:41:00,
2013-08-10 17:46:00,79.3,55.5,29.87,West,270,15.7,20.4,44,0.00,,,0.00,WUHU21623XXSP,2013-08-11 00:46:00,
2013-08-10 17:51:00,79.0,54.6,29.87,WSW,255,15.7,20.4,43,0.00,,,0.00,WUHU21623XXSP,2013-08-11 00:51:00,
2013-08-10 17:56:00,78.8,54.4,29.87,West,270,17.2,19.9,43,0.00,,,0.00,WUHU21623XXSP,2013-08-11 00:56:00,
2013-08-10 18:01:00,78.8,54.4,29.86,West,270,14.8,20.6,43,0.00,,,0.00,WUHU21623XXSP,2013-08-11 01:01:00,
2013-08-10 18:06:00,79.0,54.6,29.86,WSW,247,15.4,20.6,43,0.00,,,0.00,WUHU21623XXSP,2013-08-11 01:06:00,
2013-08-10 18:11:00,79.1,54.7,29.86,West,270,17.7,20.4,43,0.00,,,0.00,WUHU21623XXSP,2013-08-11 01:11:00,
2013-08-10 18:16:00,79.0,54.6,29.86,West,270,15.2,19.9,43,0.00,,,0.00,WUHU21623XXSP,2013-08-11 01:16:00,
2013-08-10 18:21:00,78.8,54.4,29.86,West,270,13.6,19.9,43,0.00,,,0.00,WUHU21623XXSP,2013-08-11 01:21:00,
2013-08-10 18:26:00,78.4,54.0,29.86,West,270,17.7,19.2,43,0.00,,,0.00,WUHU21623XXSP,2013-08-11 01:26:00,
2013-08-10 18:31:00,78.2,53.8,29.86,WNW,292,13.0,19.2,43,0.00,,,0.00,WUHU21623XXSP,2013-08-11 01:31:00,
2013-08-10 18:36:00,77.9,54.2,29.86,West,270,16.8,20.1,44,0.00,,,0.00,WUHU21623XXSP,2013-08-11 01:36:00,
2013-08-10 18:41:00,77.5,53.9,29.86,West,270,12.5,21.0,44,0.00,,,0.00,WUHU21623XXSP,2013-08-11 01:41:00,
2013-08-10 18:46:00,77.3,53.7,29.86,West,270,16.8,21.0,44,0.00,,,0.00,WUHU21623XXSP,2013-08-11 01:46:00,
2013-08-10 18:51:00,77.3,53.7,29.86,West,273,14.1,17.9,44,0.00,,,0.00,WUHU21623XXSP,2013-08-11 01:51:00,
2013-08-10 18:56:00,77.2,53.6,29.86,West,270,11.0,18.1,44,0.00,,,0.00,WUHU21623XXSP,2013-08-11 01:56:00,
2013-08-10 19:01:00,76.8,53.9,29.86,West,270,15.0,18.1,45,0.00,,,0.00,WUHU21623XXSP,2013-08-11 02:01:00,
2013-08-10 19:06:00,76.6,53.7,29.86,West,270,8.7,20.4,45,0.00,,,0.00,WUHU21623XXSP,2013-08-11 02:06:00,
2013-08-10 19:11:00,76.4,53.5,29.86,West,270,10.3,20.4,45,0.00,,,0.00,WUHU21623XXSP,2013-08-11 02:11:00,
2013-08-10 19:16:00,75.9,53.6,29.86,WNW,292,10.1,17.2,46,0.00,,,0.00,WUHU21623XXSP,2013-08-11 02:16:00,
2013-08-10 19:21:00,75.7,53.5,29.86,WNW,292,9.2,17.0,46,0.00,,,0.00,WUHU21623XXSP,2013-08-11 02:21:00,
2013-08-10 19:26:00,75.5,53.3,29.86,West,270,11.6,17.0,46,0.00,,,0.00,WUHU21623XXSP,2013-08-11 02:26:00,
2013-08-10 19:31:00,75.4,53.2,29.87,West,270,7.6,14.8,46,0.00,,,0.00,WUHU21623XXSP,2013-08-11 02:31:00,
2013-08-10 19:36:00,74.8,52.6,29.87,West,270,12.8,13.2,46,0.00,,,0.00,WUHU21623XXSP,2013-08-11 02:36:00,
2013-08-10 19:41:00,74.3,52.8,29.87,West,265,9.4,12.8,47,0.00,,,0.00,WUHU21623XXSP,2013-08-11 02:41:00,
2013-08-10 19:46:00,73.7,52.2,29.87,West,270,7.2,12.5,47,0.00,,,0.00,WUHU21623XXSP,2013-08-11 02:46:00,
2013-08-10 19:51:00,73.4,52.6,29.87,WNW,292,10.3,12.1,48,0.00,,,0.00,WUHU21623XXSP,2013-08-11 02:51:00,
2013-08-10 19:56:00,72.8,52.0,29.87,West,270,8.5,11.4,48,0.00,,,0.00,WUHU21623XXSP,2013-08-11 02:56:00,
2013-08-10 20:01:00,72.1,51.9,29.87,WSW,247,11.4,11.9,49,0.00,,,0.00,WUHU21623XXSP,2013-08-11 03:01:00,
2013-08-10 20:06:00,71.6,52.0,29.87,WSW,247,12.8,13.0,50,0.00,,,0.00,WUHU21623XXSP,2013-08-11 03:06:00,
2013-08-10 20:11:00,71.0,51.5,29.87,West,270,11.9,13.0,50,0.00,,,0.00,WUHU21623XXSP,2013-08-11 03:11:00,
2013-08-10 20:17:00,71.0,52.0,29.87,West,270,8.5,12.5,51,0.00,,,0.00,WUHU21623XXSP,2013-08-11 03:17:00,
2013-08-10 20:22:00,70.7,51.8,29.87,WSW,247,8.3,12.1,51,0.00,,,0.00,WUHU21623XXSP,2013-08-11 03:22:00,
2013-08-10 20:27:00,70.1,51.7,29.87,WSW,247,8.3,11.4,52,0.00,,,0.00,WUHU21623XXSP,2013-08-11 03:27:00,
2013-08-10 20:33:00,69.8,51.5,29.87,WSW,247,8.7,11.4,52,0.00,,,0.00,WUHU21623XXSP,2013-08-11 03:33:00,
2013-08-10 20:38:00,69.2,51.4,29.87,West,270,6.9,11.0,53,0.00,,,0.00,WUHU21623XXSP,2013-08-11 03:38:00,
2013-08-10 20:43:00,68.7,51.0,29.88,SW,225,8.1,11.2,53,0.00,,,0.00,WUHU21623XXSP,2013-08-11 03:43:00,
2013-08-10 20:48:00,68.2,51.0,29.88,WSW,247,8.7,11.2,54,0.00,,,0.00,WUHU21623XXSP,2013-08-11 03:48:00,
2013-08-10 20:53:00,67.6,51.0,29.87,West,270,6.0,11.0,55,0.00,,,0.00,WUHU21623XXSP,2013-08-11 03:53:00,
2013-08-10 20:58:00,66.9,50.3,29.88,WSW,247,7.2,10.1,55,0.00,,,0.00,WUHU21623XXSP,2013-08-11 03:58:00,
2013-08-10 21:01:00,66.7,50.1,29.88,WSW,247,8.3,10.1,55,0.00,,,0.00,WUHU21623XXSP,2013-08-11 04:01:00,
2013-08-10 21:06:00,65.8,49.8,29.88,WSW,247,10.5,10.5,56,0.00,,,0.00,WUHU21623XXSP,2013-08-11 04:06:00,
2013-08-10 21:11:00,65.3,49.8,29.88,WSW,247,7.6,10.5,57,0.00,,,0.00,WUHU21623XXSP,2013-08-11 04:11:00,
2013-08-10 21:16:00,65.3,49.8,29.88,WSW,247,6.7,9.2,57,0.00,,,0.00,WUHU21623XXSP,2013-08-11 04:16:00,
2013-08-10 21:21:00,65.3,49.8,29.89,WSW,247,7.8,8.9,57,0.00,,,0.00,WUHU21623XXSP,2013-08-11 04:21:00,
2013-08-10 21:26:00,65.6,50.1,29.89,WSW,247,7.4,8.7,57,0.00,,,0.00,WUHU21623XXSP,2013-08-11 04:26:00,
2013-08-10 21:31:00,65.8,50.3,29.89,WSW,247,4.3,8.7,57,0.00,,,0.00,WUHU21623XXSP,2013-08-11 04:31:00,
2013-08-10 21:36:00,65.6,50.1,29.89,West,270,6.3,7.4,57,0.00,,,0.00,WUHU21623XXSP,2013-08-11 04:36:00,
2013-08-10 21:41:00,65.1,49.6,29.89,WSW,247,5.1,8.3,57,0.00,,,0.00,WUHU21623XXSP,2013-08-11 04:41:00,
2013-08-10 21:46:00,64.7,49.7,29.89,WSW,247,8.1,10.5,58,0.00,,,0.00,WUHU21623XXSP,2013-08-11 04:46:00,
2013-08-10 21:51:00,64.0,49.1,29.89,WSW,247,10.3,10.5,58,0.00,,,0.00,WUHU21623XXSP,2013-08-11 04:51:00,
2013-08-10 21:56:00,63.7,49.2,29.89,WSW,247,7.8,10.3,59,0.00,,,0.00,WUHU21623XXSP,2013-08-11 04:56:00,
2013-08-10 22:01:00,63.1,48.7,29.89,WSW,247,7.8,10.3,59,0.00,,,0.00,WUHU21623XXSP,2013-08-11 05:01:00,
2013-08-10 22:06:00,63.3,49.3,29.89,West,270,7.2,8.5,60,0.00,,,0.00,WUHU21623XXSP,2013-08-11 05:06:00,
2013-08-10 22:11:00,63.3,49.3,29.89,West,270,7.4,10.1,60,0.00,,,0.00,WUHU21623XXSP,2013-08-11 05:11:00,
2013-08-10 22:17:00,63.1,49.1,29.89,WSW,247,8.1,11.2,60,0.00,,,0.00,WUHU21623XXSP,2013-08-11 05:17:00,
2013-08-10 22:22:00,62.8,48.8,29.89,West,270,7.2,11.2,60,0.00,,,0.00,WUHU21623XXSP,2013-08-11 05:22:00,
2013-08-10 22:27:00,62.4,48.5,29.89,West,270,10.1,10.1,60,0.00,,,0.00,WUHU21623XXSP,2013-08-11 05:27:00,
2013-08-10 22:32:00,62.0,48.5,29.89,West,270,6.9,10.1,61,0.00,,,0.00,WUHU21623XXSP,2013-08-11 05:32:00,
2013-08-10 22:37:00,61.9,48.4,29.89,West,270,6.3,9.4,61,0.00,,,0.00,WUHU21623XXSP,2013-08-11 05:37:00,
2013-08-10 22:42:00,61.5,48.5,29.89,West,270,3.4,7.4,62,0.00,,,0.00,WUHU21623XXSP,2013-08-11 05:42:00,
2013-08-10 22:47:00,61.5,48.9,29.89,West,270,5.8,8.9,63,0.00,,,0.00,WUHU21623XXSP,2013-08-11 05:47:00,
2013-08-10 22:53:00,61.7,49.1,29.89,WSW,247,3.4,8.9,63,0.00,,,0.00,WUHU21623XXSP,2013-08-11 05:53:00,
2013-08-10 22:58:00,61.7,49.1,29.89,West,270,7.8,8.7,63,0.00,,,0.00,WUHU21623XXSP,2013-08-11 05:58:00,
2013-08-10 23:03:00,61.3,48.7,29.89,WNW,292,3.1,9.6,63,0.00,,,0.00,WUHU21623XXSP,2013-08-11 06:03:00,
2013-08-10 23:08:00,61.1,49.0,29.89,West,270,10.7,10.7,64,0.00,,,0.00,WUHU21623XXSP,2013-08-11 06:08:00,
2013-08-10 23:13:00,61.1,49.0,29.89,West,270,6.5,10.7,64,0.00,,,0.00,WUHU21623XXSP,2013-08-11 06:13:00,
2013-08-10 23:18:00,61.0,48.9,29.89,WNW,292,10.1,11.6,64,0.00,,,0.00,WUHU21623XXSP,2013-08-11 06:18:00,
2013-08-10 23:23:00,61.1,49.4,29.89,West,270,8.5,11.6,65,0.00,,,0.00,WUHU21623XXSP,2013-08-11 06:23:00,
2013-08-10 23:28:00,61.1,49.4,29.89,West,270,5.1,11.2,65,0.00,,,0.00,WUHU21623XXSP,2013-08-11 06:28:00,
2013-08-10 23:33:00,61.5,50.2,29.89,WNW,292,7.2,10.7,66,0.00,,,0.00,WUHU21623XXSP,2013-08-11 06:33:00,
2013-08-10 23:38:00,62.0,50.7,29.89,West,270,8.7,10.7,66,0.00,,,0.00,WUHU21623XXSP,2013-08-11 06:38:00,
2013-08-10 23:43:00,62.2,50.9,29.89,WSW,247,5.6,9.6,66,0.00,,,0.00,WUHU21623XXSP,2013-08-11 06:43:00,
2013-08-10 23:48:00,62.0,50.7,29.89,SW,225,8.7,9.8,66,0.00,,,0.00,WUHU21623XXSP,2013-08-11 06:48:00,
2013-08-10 23:53:00,61.7,50.4,29.89,SW,225,4.7,9.8,66,0.00,,,0.00,WUHU21623XXSP,2013-08-11 06:53:00,
2013-08-10 23:58:00,61.3,50.4,29.89,WSW,247,5.8,7.6,67,0.00,,,0.00,WUHU21623XXSP,2013-08-11 06:58:00,